KD8OZS Weather Reports


time (UTC)temp
C
wind
direction
speed
KPH
gust
KPH
rain 1hr
cm
rain 24hr
cm
rain mn
cm
humidity
%
barometer
mb
20260504002855 12 227 6.4 9.7 0.00 0.00 0.00 55 1005.6
20260504002352 12 236 1.6 1.6 0.00 0.00 0.00 49 1005.0
20260504001849 12 221 1.6 1.6 0.00 0.00 0.00 48 1004.9
20260504001347 13 246 1.6 1.6 0.00 0.00 0.00 48 1005.1
20260504000843 13 232 1.6 3.2 0.00 0.00 0.00 48 1005.0
20260504000340 13 236 0.0 1.6 0.00 0.00 0.00 46 1005.2
20260503235838 13 225 4.8 4.8 0.00 0.00 0.00 45 1005.1
20260503235335 13 233 1.6 1.6 0.00 0.00 0.00 45 1005.0
20260503234833 13 237 3.2 3.2 0.00 0.00 0.00 45 1005.1
20260503234330 13 200 4.8 4.8 0.00 0.00 0.00 45 1005.1
20260503233828 13 241 0.0 1.6 0.00 0.00 0.00 46 1005.2
20260503233324 13 239 0.0 0.0 0.00 0.00 0.00 47 1005.0
20260503232820 13 222 3.2 3.2 0.00 0.00 0.00 45 1005.3
20260503232318 13 213 3.2 3.2 0.00 0.00 0.00 45 1005.3
20260503231816 13 244 1.6 1.6 0.00 0.00 0.00 46 1005.2
20260503231312 13 239 1.6 1.6 0.00 0.00 0.00 46 1005.3
20260503230808 13 247 3.2 3.2 0.00 0.00 0.00 45 1005.3
20260503230306 13 247 3.2 3.2 0.00 0.00 0.00 45 1005.5
20260503225803 13 225 3.2 3.2 0.00 0.00 0.00 44 1005.5
20260503225258 14 238 0.0 1.6 0.00 0.00 0.00 44 1005.6
20260503224755 14 227 1.6 1.6 0.00 0.00 0.00 45 1005.5
20260503224253 14 244 3.2 3.2 0.00 0.00 0.00 45 1005.4
20260503223750 14 204 6.4 8.0 0.00 0.00 0.00 43 1005.8
20260503223248 14 209 6.4 8.0 0.00 0.00 0.00 42 1005.6
20260503222744 14 245 1.6 1.6 0.00 0.00 0.00 45 1005.7
20260503222242 15 240 4.8 4.8 0.00 0.00 0.00 44 1005.8
20260503221740 14 229 1.6 1.6 0.00 0.00 0.00 43 1005.9
20260503221237 14 243 3.2 3.2 0.00 0.00 0.00 44 1005.7
20260503220734 15 232 3.2 4.8 0.00 0.00 0.00 44 1005.8
20260503220231 14 241 1.6 1.6 0.00 0.00 0.00 43 1005.9
20260503215727 14 213 4.8 4.8 0.00 0.00 0.00 42 1006.0
20260503215225 14 217 1.6 3.2 0.00 0.00 0.00 43 1005.9
20260503214723 15 224 3.2 3.2 0.00 0.00 0.00 44 1005.7
20260503214219 15 223 3.2 3.2 0.00 0.00 0.00 46 1006.0
20260503213717 15 250 3.2 3.2 0.00 0.00 0.00 42 1006.0
20260503213214 15 219 3.2 3.2 0.00 0.00 0.00 43 1005.7
20260503212711 15 210 8.0 12.9 0.00 0.00 0.00 41 1005.9
20260503212209 15 236 3.2 4.8 0.00 0.00 0.00 43 1005.8
20260503211706 15 214 3.2 3.2 0.00 0.00 0.00 42 1005.8
20260503211202 15 266 1.6 3.2 0.00 0.00 0.00 43 1006.1
20260503210658 15 227 6.4 8.0 0.00 0.00 0.00 42 1006.0
20260503210155 15 247 8.0 9.7 0.00 0.00 0.00 42 1006.0
20260503205650 15 226 4.8 4.8 0.00 0.00 0.00 40 1006.0
20260503205147 14 227 4.8 4.8 0.00 0.00 0.00 42 1006.2
20260503204643 15 244 3.2 3.2 0.00 0.00 0.00 41 1006.0
20260503204141 15 232 9.7 11.3 0.00 0.00 0.00 40 1006.2
20260503203638 15 236 4.8 4.8 0.00 0.00 0.00 40 1006.2
20260503203136 15 226 6.4 9.7 0.00 0.00 0.00 42 1006.0
20260503202633 15 247 0.0 1.6 0.00 0.00 0.00 41 1006.2
20260503202131 15 235 1.6 3.2 0.00 0.00 0.00 41 1006.1
20260503201629 15 226 8.0 9.7 0.00 0.00 0.00 41 1006.3
20260503201126 15 221 3.2 3.2 0.00 0.00 0.00 43 1006.3
20260503200622 16 262 6.4 9.7 0.00 0.00 0.00 40 1006.4
20260503200118 16 246 1.6 1.6 0.00 0.00 0.00 41 1006.5
20260503195615 16 220 8.0 11.3 0.00 0.00 0.00 38 1006.5
20260503195112 16 250 3.2 3.2 0.00 0.00 0.00 41 1006.5
20260503194609 15 252 4.8 9.7 0.00 0.00 0.00 38 1006.5
20260503194104 15 240 3.2 3.2 0.00 0.00 0.00 42 1006.8
20260503193601 15 217 3.2 3.2 0.00 0.00 0.00 43 1006.9
20260503193056 15 221 6.4 9.7 0.00 0.00 0.00 42 1007.0
20260503192553 15 214 6.4 8.0 0.00 0.00 0.00 43 1007.0
20260503192049 15 245 1.6 1.6 0.00 0.00 0.00 44 1007.1
20260503191546 15 245 4.8 8.0 0.00 0.00 0.00 41 1007.2
20260503191043 15 252 4.8 4.8 0.00 0.00 0.00 42 1007.3
20260503190539 15 231 4.8 4.8 0.00 0.00 0.00 41 1007.3
20260503190037 16 211 4.8 8.0 0.00 0.00 0.00 38 1007.3
20260503185533 16 244 4.8 4.8 0.00 0.00 0.00 43 1007.5
20260503185033 16 212 8.0 11.3 0.00 0.00 0.00 41 1007.6
20260503184529 15 230 4.8 4.8 0.00 0.00 0.00 43 1007.7
20260503184026 15 254 3.2 3.2 0.00 0.00 0.00 45 1007.6
20260503183522 16 238 9.7 14.5 0.00 0.00 0.00 42 1007.7
20260503183020 15 239 1.6 3.2 0.00 0.00 0.00 45 1008.0
20260503182518 15 235 4.8 4.8 0.00 0.00 0.00 45 1008.0
20260503182015 15 226 3.2 4.8 0.00 0.00 0.00 42 1008.1
20260503181512 15 221 8.0 9.7 0.00 0.00 0.00 43 1007.7
20260503181008 15 237 4.8 8.0 0.00 0.00 0.00 45 1007.8
20260503180506 15 228 6.4 8.0 0.00 0.00 0.00 43 1007.8
20260503180003 14 218 4.8 8.0 0.00 0.00 0.00 43 1008.2
20260503175501 15 245 4.8 4.8 0.00 0.00 0.00 43 1008.2
20260503174957 15 245 4.8 8.0 0.00 0.00 0.00 46 1008.3
20260503174455 15 228 8.0 9.7 0.00 0.00 0.00 45 1008.2
20260503173950 14 228 4.8 8.0 0.00 0.00 0.00 48 1008.3
20260503173446 14 241 3.2 3.2 0.00 0.00 0.00 45 1008.6
20260503172943 14 242 4.8 4.8 0.00 0.00 0.00 46 1008.4
20260503172440 15 221 6.4 8.0 0.00 0.00 0.00 43 1008.4
20260503171937 15 280 6.4 8.0 0.00 0.00 0.00 45 1008.4
20260503171433 14 216 6.4 8.0 0.00 0.00 0.00 48 1008.6
20260503170931 15 244 1.6 3.2 0.00 0.00 0.00 52 1008.8
20260503170427 15 239 4.8 4.8 0.00 0.00 0.00 46 1008.7
20260503150820 12 259 4.8 4.8 0.00 0.00 0.00 51 1009.8
20260503150315 12 230 4.8 8.0 0.00 0.00 0.00 49 1009.7
20260503140240 10 234 1.6 1.6 0.00 0.00 0.00 59 1009.9
20260503131209 7 239 0.0 0.0 0.00 0.00 0.00 66 1010.3
20260503130707 8 233 1.6 3.2 0.00 0.00 0.00 65 1010.3
20260503130204 8 232 0.0 1.6 0.00 0.00 0.00 66 1010.1
20260503120130 2 236 0.0 0.0 0.00 0.00 0.00 98 1010.1
20260503110557 -1 239 0.0 0.0 0.00 0.00 0.00 99 1009.8
20260503090444 0 239 0.0 0.0 0.00 0.00 0.00 98 1009.0
20260503081410 0 239 0.0 0.0 0.00 0.00 0.00 97 1009.3
20260503080908 0 239 0.0 0.0 0.00 0.00 0.00 97 1009.2
20260503080404 0 239 0.0 0.0 0.00 0.00 0.00 97 1009.4
20260503072840 0 239 0.0 0.0 0.00 0.00 0.00 97 1009.1
20260503072338 0 239 0.0 0.0 0.00 0.00 0.00 97 1009.2
20260503071834 0 239 0.0 0.0 0.00 0.00 0.00 96 1009.1
20260503071331 0 239 0.0 0.0 0.00 0.00 0.00 96 1009.0
20260503070827 0 239 0.0 0.0 0.00 0.00 0.00 96 1009.1
20260503070326 0 239 0.0 0.0 0.00 0.00 0.00 96 1009.2
20260503060250 1 239 0.0 0.0 0.00 0.00 0.00 95 1009.3
20260503054738 1 239 0.0 0.0 0.00 0.00 0.00 95 1009.4
20260503054234 1 239 0.0 0.0 0.00 0.00 0.00 95 1009.4
20260503053732 1 239 0.0 0.0 0.00 0.00 0.00 95 1009.6
20260503053231 1 239 0.0 0.0 0.00 0.00 0.00 94 1009.5
20260503052727 2 239 0.0 0.0 0.00 0.00 0.00 94 1009.4
20260503052223 2 241 0.0 0.0 0.00 0.00 0.00 94 1009.3
20260503051718 2 241 0.0 0.0 0.00 0.00 0.00 94 1009.4
20260503051217 2 241 0.0 0.0 0.00 0.00 0.00 93 1009.5
20260503050713 2 241 0.0 0.0 0.00 0.00 0.00 93 1009.5
20260503050209 2 241 0.0 0.0 0.00 0.00 0.00 93 1009.5
20260503045707 2 241 0.0 0.0 0.00 0.00 0.00 93 1009.6
20260503045205 2 241 0.0 0.0 0.00 0.00 0.00 93 1009.4
20260503044701 2 241 0.0 0.0 0.00 0.00 0.00 92 1009.4
20260503044158 2 241 0.0 0.0 0.00 0.00 0.00 92 1009.5
20260503043655 2 241 0.0 0.0 0.00 0.00 0.00 92 1009.5
20260503043152 2 241 0.0 0.0 0.00 0.00 0.00 92 1009.3
20260503042648 2 241 0.0 0.0 0.00 0.00 0.00 92 1009.3
20260503042145 2 241 0.0 0.0 0.00 0.00 0.00 91 1009.5
20260503041641 2 241 0.0 0.0 0.00 0.00 0.00 91 1009.3
20260503041139 2 241 0.0 0.0 0.00 0.00 0.00 91 1009.5
20260503040636 2 241 0.0 0.0 0.00 0.00 0.00 92 1009.6
20260503040134 2 241 0.0 0.0 0.00 0.00 0.00 91 1009.6
20260503035630 2 241 0.0 0.0 0.00 0.05 0.05 91 1009.5
20260503035128 2 241 0.0 0.0 0.00 0.05 0.05 92 1009.7
20260503034625 2 241 0.0 0.0 0.00 0.05 0.05 92 1009.7
20260503034122 2 241 0.0 0.0 0.00 0.05 0.05 92 1009.7
20260503033619 2 241 0.0 0.0 0.00 0.05 0.05 92 1009.7
20260503033117 2 241 0.0 0.0 0.00 0.05 0.05 92 1009.6
20260503032615 2 241 0.0 0.0 0.00 0.05 0.05 92 1009.7
20260503032113 2 241 0.0 0.0 0.00 0.05 0.05 92 1009.6
20260503031610 2 241 0.0 0.0 0.00 0.05 0.05 92 1009.8
20260503031108 2 241 0.0 0.0 0.00 0.05 0.05 92 1009.8
20260503030604 2 241 0.0 0.0 0.00 0.05 0.05 92 1009.6
20260503030101 2 241 0.0 0.0 0.00 0.05 0.05 92 1009.8
20260503025557 2 241 0.0 0.0 0.00 0.05 0.05 92 1009.8
20260503025055 2 241 0.0 0.0 0.00 0.05 0.05 92 1009.8
20260503024551 2 241 0.0 0.0 0.00 0.05 0.05 92 1009.9
20260503024048 3 241 0.0 0.0 0.00 0.05 0.05 91 1009.8
20260503023545 3 241 0.0 0.0 0.00 0.05 0.05 91 1009.7
20260503023042 3 241 0.0 0.0 0.00 0.05 0.05 91 1009.7
20260503022538 3 241 0.0 0.0 0.00 0.05 0.05 91 1009.8
20260503022033 3 241 0.0 0.0 0.00 0.05 0.05 91 1009.8
20260503021530 3 241 0.0 0.0 0.00 0.05 0.05 91 1009.8
20260503021027 3 241 0.0 0.0 0.00 0.05 0.05 90 1009.9
20260503020524 3 241 0.0 0.0 0.00 0.05 0.05 90 1009.9
20260503020021 3 241 0.0 0.0 0.00 0.05 0.05 90 1010.0
20260503015518 3 241 0.0 0.0 0.00 0.05 0.05 90 1009.9
20260503015015 3 241 0.0 0.0 0.00 0.05 0.05 89 1009.7
20260503014511 3 241 0.0 0.0 0.00 0.05 0.05 89 1009.9
20260503014009 3 241 0.0 0.0 0.00 0.05 0.05 89 1009.9
20260503013506 3 241 0.0 0.0 0.00 0.05 0.05 89 1009.8
20260503013004 3 241 0.0 0.0 0.00 0.05 0.05 89 1010.0
20260503012501 3 241 0.0 0.0 0.00 0.05 0.05 88 1009.9
20260503011956 3 241 0.0 0.0 0.00 0.05 0.05 88 1009.7
20260503011454 3 241 0.0 0.0 0.00 0.05 0.05 88 1009.8
20260503010951 3 241 0.0 0.0 0.00 0.05 0.05 88 1009.9
20260503010447 3 241 0.0 0.0 0.00 0.05 0.05 88 1009.8
20260503005945 3 241 0.0 0.0 0.00 0.05 0.05 87 1009.7
20260503005442 3 241 0.0 0.0 0.00 0.05 0.05 87 1009.7
20260503004939 3 241 0.0 0.0 0.00 0.05 0.05 87 1009.7
20260503004435 4 241 0.0 0.0 0.00 0.05 0.05 87 1009.7
20260503003933 4 241 0.0 0.0 0.00 0.05 0.05 86 1009.9
20260503003430 4 241 0.0 0.0 0.00 0.05 0.05 85 1009.9
20260503002927 4 241 0.0 0.0 0.00 0.05 0.05 85 1009.8